Total_Precipitation_Accumulation
0.05 0.06 0.22 0.27 0.29 0.28 0.28 0.28 0.26 0.24 0.23 0.24 0.26 0.27 0.26 0.27 0.28 0.28 0.32 0.35 0.38 0.35 0.37 0.42 0.41 0.39 0.37 0.35 0.34 0.33 0.27 0.24 0.23 0.27 0.35 0.41 0.38 0.30 0.26 0.23 0.20 0.28 0.36
0.04 0.06 0.16 0.20 0.24 0.26 0.27 0.25 0.22 0.19 0.19 0.18 0.18 0.20 0.21 0.22 0.24 0.25 0.30 0.36 0.40 0.36 0.35 0.39 0.42 0.42 0.40 0.38 0.37 0.35 0.26 0.18 0.15 0.15 0.18 0.26 0.30 0.29 0.25 0.25 0.25 0.39 0.42
0.02 0.04 0.10 0.16 0.20 0.23 0.24 0.22 0.19 0.16 0.14 0.14 0.13 0.15 0.17 0.19 0.22 0.24 0.28 0.30 0.34 0.38 0.37 0.36 0.45 0.48 0.45 0.42 0.39 0.35 0.28 0.17 0.10 0.09 0.10 0.19 0.29 0.34 0.30 0.27 0.28 0.32 0.36
0.01 0.02 0.05 0.13 0.19 0.22 0.23 0.21 0.18 0.16 0.13 0.12 0.12 0.13 0.16 0.18 0.20 0.23 0.28 0.30 0.35 0.44 0.47 0.49 0.56 0.54 0.48 0.42 0.38 0.33 0.32 0.21 0.10 0.08 0.07 0.18 0.34 0.41 0.35 0.31 0.27 0.28 0.31
0.00 0.01 0.04 0.11 0.17 0.20 0.21 0.22 0.21 0.17 0.14 0.13 0.14 0.13 0.15 0.17 0.19 0.21 0.24 0.29 0.35 0.46 0.47 0.46 0.51 0.50 0.44 0.41 0.36 0.38 0.41 0.29 0.14 0.06 0.05 0.12 0.28 0.44 0.39 0.37 0.30 0.26 0.28
0.00 0.01 0.03 0.11 0.18 0.19 0.22 0.26 0.26 0.20 0.16 0.16 0.15 0.15 0.16 0.16 0.16 0.18 0.20 0.20 0.25 0.32 0.34 0.39 0.43 0.44 0.42 0.38 0.32 0.36 0.44 0.38 0.16 0.04 0.06 0.09 0.22 0.39 0.38 0.38 0.33 0.28 0.25
0.00 0.01 0.03 0.11 0.18 0.20 0.22 0.26 0.27 0.21 0.17 0.16 0.17 0.19 0.18 0.17 0.17 0.17 0.15 0.15 0.15 0.18 0.22 0.30 0.40 0.45 0.44 0.38 0.33 0.37 0.44 0.35 0.13 0.11 0.12 0.13 0.19 0.28 0.40 0.42 0.37 0.33 0.29
0.00 0.01 0.04 0.12 0.19 0.20 0.21 0.25 0.30 0.25 0.21 0.18 0.21 0.23 0.22 0.21 0.21 0.21 0.18 0.15 0.14 0.13 0.16 0.21 0.33 0.50 0.50 0.38 0.36 0.41 0.39 0.21 0.08 0.08 0.12 0.16 0.19 0.32 0.62 0.69 0.50 0.39 0.35
0.01 0.02 0.04 0.11 0.16 0.20 0.21 0.24 0.30 0.27 0.25 0.23 0.24 0.25 0.24 0.22 0.22 0.23 0.22 0.20 0.20 0.19 0.16 0.17 0.26 0.45 0.48 0.40 0.41 0.45 0.31 0.12 0.04 0.11 0.10 0.19 0.18 0.39 0.75 0.83 0.71 0.53 0.42
0.01 0.02 0.05 0.10 0.14 0.17 0.19 0.23 0.27 0.26 0.26 0.26 0.25 0.24 0.21 0.21 0.22 0.21 0.18 0.16 0.18 0.21 0.19 0.17 0.19 0.31 0.38 0.38 0.46 0.41 0.18 0.06 0.02 0.07 0.17 0.17 0.16 0.41 0.81 0.91 0.84 0.70 0.56
0.03 0.04 0.06 0.12 0.15 0.16 0.18 0.20 0.23 0.24 0.23 0.23 0.23 0.20 0.20 0.18 0.18 0.17 0.14 0.14 0.17 0.19 0.19 0.21 0.21 0.25 0.30 0.28 0.35 0.27 0.10 0.04 0.04 0.08 0.16 0.15 0.18 0.39 0.77 0.94 0.89 0.81 0.72
0.03 0.04 0.07 0.11 0.14 0.16 0.16 0.17 0.20 0.20 0.18 0.17 0.17 0.17 0.19 0.20 0.20 0.18 0.15 0.15 0.18 0.18 0.20 0.24 0.26 0.25 0.24 0.22 0.34 0.27 0.13 0.09 0.09 0.06 0.09 0.08 0.19 0.40 0.64 0.85 0.95 0.88 0.83
0.03 0.05 0.07 0.11 0.14 0.15 0.16 0.17 0.18 0.18 0.18 0.18 0.18 0.19 0.24 0.26 0.26 0.23 0.20 0.18 0.18 0.17 0.19 0.23 0.27 0.25 0.29 0.42 0.56 0.44 0.29 0.22 0.14 0.07 0.04 0.05 0.15 0.30 0.50 0.68 0.88 0.99 0.99
0.05 0.06 0.09 0.12 0.14 0.14 0.17 0.19 0.16 0.15 0.14 0.15 0.17 0.17 0.20 0.22 0.21 0.20 0.18 0.16 0.16 0.16 0.17 0.19 0.22 0.25 0.28 0.34 0.38 0.35 0.29 0.25 0.17 0.12 0.07 0.06 0.09 0.16 0.30 0.47 0.67 0.93 1.03
0.06 0.07 0.09 0.12 0.14 0.16 0.18 0.20 0.17 0.14 0.12 0.10 0.11 0.11 0.12 0.13 0.14 0.14 0.13 0.13 0.12 0.13 0.14 0.15 0.15 0.16 0.20 0.23 0.22 0.22 0.23 0.21 0.18 0.17 0.14 0.11 0.09 0.11 0.18 0.31 0.45 0.70 0.96
0.07 0.08 0.09 0.11 0.13 0.16 0.16 0.18 0.18 0.15 0.13 0.13 0.12 0.11 0.10 0.10 0.09 0.09 0.09 0.09 0.10 0.09 0.10 0.11 0.12 0.12 0.14 0.17 0.17 0.16 0.17 0.15 0.14 0.15 0.16 0.15 0.12 0.11 0.17 0.25 0.34 0.46 0.73
0.06 0.08 0.09 0.11 0.13 0.16 0.17 0.16 0.17 0.17 0.14 0.14 0.13 0.12 0.11 0.10 0.09 0.08 0.08 0.08 0.08 0.10 0.12 0.17 0.19 0.19 0.20 0.21 0.20 0.21 0.19 0.17 0.16 0.17 0.18 0.18 0.18 0.16 0.18 0.28 0.34 0.38 0.53
0.05 0.08 0.09 0.12 0.12 0.15 0.18 0.18 0.17 0.18 0.16 0.13 0.13 0.13 0.12 0.12 0.12 0.11 0.09 0.08 0.07 0.09 0.14 0.20 0.25 0.26 0.24 0.26 0.25 0.27 0.28 0.27 0.22 0.23 0.25 0.22 0.22 0.20 0.19 0.24 0.33 0.39 0.50
0.06 0.07 0.10 0.12 0.13 0.13 0.18 0.21 0.18 0.19 0.18 0.14 0.14 0.15 0.14 0.15 0.15 0.15 0.13 0.11 0.10 0.12 0.15 0.20 0.22 0.25 0.26 0.28 0.30 0.32 0.35 0.37 0.34 0.29 0.26 0.24 0.23 0.22 0.23 0.24 0.28 0.32 0.44
0.07 0.07 0.08 0.11 0.14 0.14 0.18 0.24 0.25 0.21 0.19 0.16 0.13 0.13 0.14 0.14 0.15 0.15 0.14 0.14 0.15 0.17 0.19 0.21 0.24 0.25 0.26 0.31 0.35 0.34 0.38 0.38 0.37 0.33 0.30 0.32 0.31 0.25 0.23 0.24 0.27 0.27 0.30
0.06 0.08 0.09 0.10 0.15 0.17 0.18 0.22 0.24 0.20 0.17 0.16 0.13 0.11 0.11 0.12 0.12 0.13 0.12 0.13 0.14 0.16 0.19 0.22 0.24 0.24 0.24 0.26 0.30 0.27 0.25 0.27 0.30 0.28 0.27 0.30 0.34 0.36 0.35 0.31 0.29 0.28 0.29
0.03 0.06 0.09 0.09 0.11 0.16 0.16 0.17 0.20 0.18 0.16 0.16 0.14 0.12 0.11 0.11 0.11 0.12 0.12 0.14 0.15 0.14 0.14 0.15 0.18 0.21 0.20 0.20 0.27 0.30 0.24 0.21 0.20 0.20 0.20 0.24 0.30 0.37 0.40 0.41 0.40 0.36 0.33
0.02 0.04 0.07 0.08 0.08 0.11 0.16 0.20 0.23 0.25 0.21 0.19 0.18 0.14 0.12 0.11 0.11 0.11 0.11 0.13 0.15 0.17 0.16 0.14 0.15 0.19 0.20 0.18 0.21 0.36 0.44 0.31 0.21 0.16 0.17 0.18 0.21 0.23 0.25 0.30 0.34 0.38 0.39
0.01 0.03 0.06 0.09 0.09 0.09 0.13 0.20 0.23 0.24 0.22 0.17 0.14 0.14 0.13 0.12 0.11 0.11 0.12 0.13 0.16 0.18 0.18 0.17 0.16 0.18 0.20 0.21 0.19 0.22 0.31 0.34 0.41 0.27 0.10 0.08 0.10 0.11 0.13 0.16 0.20 0.25 0.30
0.01 0.02 0.03 0.08 0.10 0.09 0.10 0.14 0.19 0.22 0.21 0.20 0.18 0.16 0.16 0.16 0.13 0.13 0.13 0.15 0.16 0.18 0.18 0.19 0.18 0.19 0.20 0.21 0.23 0.23 0.20 0.20 0.29 0.44 0.23 0.06 0.05 0.06 0.09 0.12 0.15 0.20 0.25
0.02 0.02 0.04 0.06 0.09 0.10 0.11 0.13 0.17 0.19 0.21 0.23 0.23 0.21 0.19 0.18 0.17 0.15 0.14 0.15 0.17 0.19 0.20 0.22 0.22 0.21 0.21 0.22 0.23 0.25 0.29 0.32 0.29 0.38 0.36 0.17 0.10 0.06 0.07 0.10 0.13 0.18 0.24